Regional Weather Roundup
Issued by NWS Grand Forks, ND

Home | Current Version | Previous Version | Graphics & Text | Print | Product List | Glossary On
Versions: 1 2 3 4 5 6 7 8 9 10 11 12 13 14 15 16 17 18 19 20 21 22 23 24 25 26 27 28 29 30 31 32 33 34 35 36 37 38 39 40 41 42 43 44 45 46 47 48 49 50
000
ASUS43 KFGF 111610
RWRFGF
PRAIRIE TO PINES  WEATHER ROUNDUP
NATIONAL WEATHER SERVICE EASTERN NORTH DAKOTA/GRAND FORKS ND
1000 AM CST THU FEB 11 2016

 **SATELLITE DATA USED TO AUGMENT SKY COVER AT AUTOMATED STATIONS**
 *****  WEATHER ACROSS EASTERN NORTH DAKOTA  *****

CITY           SKY/WX    TMP DP  RH WIND       PRES   REMARKS
GRAND FORKS    CLOUDY     9   1  70 S9        30.26S WCI  -4
GRAND FRKS AFB FLURRIES   9   1  72 S7        30.25S WCI  -3
DEVILS LAKE    LGT SNOW   9   5  84 CALM      30.19R FOG
FARGO          CLOUDY     9  -1  64 CALM      30.26S
WAHPETON ARPT  CLOUDY     9   3  78 SE3       30.26F
$$

 ***** WEATHER ACROSS CENTRAL AND WESTERN NORTH DAKOTA  *****

CITY           SKY/WX    TMP DP  RH WIND       PRES   REMARKS
BISMARCK       LGT SNOW  21  15  78 E6        30.13R WCI  13
MINOT          CLOUDY    16   7  67 NE3       30.14S
JAMESTOWN      CLOUDY     9   6  88 S6        30.16S FOG     WCI  -1
MINOT AFB      CLOUDY    13  10  88 E3        30.15R
GARRISON         N/A     16  12  84 E6        30.11R WCI   7
WILLISTON      LGT SNOW  23  18  81 NE7       30.11R VSB 3/4 WCI  15
DICKINSON      LGT SNOW  22  20  92 E9        30.00R VSB 3/4 WCI  12
HETTINGER      LGT SNOW  30  28  92 SE6       30.01S FOG     WCI  24
$$

 *****  OTHER AIRPORT OBSERVATIONS IN OUR AREA  *****

CITY           SKY/WX    TMP DP  RH WIND       PRES   REMARKS
WALHALLA       FAIR      10   9  92 NW5       30.24R WCI   2
GRAFTON AIRPOR CLOUDY     9   3  78 S7        30.27S WCI  -3
VALLEY CITY AR CLOUDY     7   3  85 S6        30.21R WCI  -3
CANDO          NOT AVBL
CAVALIER APRT  LGT SNOW   9   5  85 SW5       30.25R WCI   0
GWINNER        CLOUDY    10   7  85 E5        30.21S WCI   2
SHEYENNE NWR     N/A      8   2  76 SE5       29.95S WCI   0
ROLLA          FLURRIES   9   5  85 N5        30.16R WCI   0
 ***** THE ABOVE OBSERVATIONS ARE NON NWS ARE NOT QUALITY
       CONTROLLED AND MAY MIS-REPORT RAIN FOR SNOW...
$$

  *****  WEATHER ACROSS NORTHERN MINNESOTA  *****

CITY           SKY/WX    TMP DP  RH WIND       PRES   REMARKS
FLAG ISLAND    CLOUDY     0  -9  65 CALM      30.20S
WARROAD        PTSUNNY    0  -8  71 SW9       30.22S WCI -16
ROSEAU         CLOUDY     0  -6  78 SW3       30.23S
HALLOCK        CLOUDY     7   1  78 S7        30.25R WCI  -5
THF RVR FALLS  CLOUDY     3   3 100 S3        30.24S
BAUDETTE       CLOUDY     0  -9  65 SW5       30.20S WCI -10
WASKISH        CLOUDY     0  -8  71 SW5       30.23R WCI -10
CROOKSTON      CLOUDY     7   1  78 SW5       30.27R WCI  -2
STEPHEN NDAWN    N/A      7   0  72 S6          N/A  WCI  -3
GREENBUSH NDAW   N/A      5   0  78 SW6         N/A  WCI  -6
$$
  *****  WEATHER ACROSS CENTRAL AND WEST MINNESOTA  *****

CITY           SKY/WX    TMP DP  RH WIND       PRES   REMARKS
FOSSTON        CLOUDY     0  -8  71 S3        30.23R
BEMIDJI        CLOUDY    -6 -11  80 CALM      30.21S
PARK RAPIDS    CLOUDY    -4  -8  83 CALM      30.22S
ELBOW LAKE     CLOUDY     9   4  80 SE7       30.25S WCI  -3
WADENA         CLOUDY     3  -4  72 SE3       30.23S
DETROIT LAKES  CLOUDY     5   0  78 SE6       30.22S WCI  -6
MOORHEAD       CLOUDY     7   0  72 S3        30.26F
FERGUS FALLS   CLOUDY     9   3  78 S3        30.28S
MORRIS MN      CLOUDY    10   7  85 SE6       30.25S WCI   1
STAPLES        CLOUDY     1  -6  71 S3        30.24F
$$
  *****  WEATHER ELSEWHERE ACROSS MINNESOTA  *****

CITY           SKY/WX    TMP DP  RH WIND       PRES   REMARKS
DULUTH         PTSUNNY   -1  -9  68 NW6       30.22R WCI -13
INTRNTL FALLS  CLOUDY    -1  -9  68 W6        30.21S WCI -13
ELY            CLOUDY    -6  -9  84 SW5       30.19S WCI -17
CLOQUET        CLOUDY     0  -9  65 CALM      30.24S
WHEATON        FLURRIES  10   7  85 SE7       30.27F WCI   0
BRAINERD       CLOUDY    -2  -7  79 CALM      30.26S
HIBBING        CLOUDY    -5  -9  83 SE5       30.21F WCI -16
ALEXANDRIA     CLOUDY     9  -1  64 S9        30.24R WCI  -4
SAINT CLOUD    CLOUDY     5  -5  63 SE3       30.29S
MINNEAPOLIS    CLOUDY     8  -3  61 CALM      30.33S
$$

  *****  WEATHER ACROSS SOUTH DAKOTA  *****

CITY           SKY/WX    TMP DP  RH WIND       PRES   REMARKS
SIOUX FALLS    CLOUDY    14   5  67 S8        30.25R WCI   3
BROOKINGS      CLOUDY    13   6  74 S12       30.20S WCI  -1
WATERTOWN      CLOUDY    13   7  77 S12       30.16F WCI  -1
HURON          CLOUDY    19  14  81 S10       30.18F WCI   7
SISSETON         N/A     10   5  80 SE8       30.22F WCI  -2
ABERDEEN       LGT SNOW  18  13  80 S9        30.18F WCI   7
MITCHELL       CLOUDY    20  14  77 SE14      30.21F WCI   7
PIERRE         CLOUDY    25  22  88 SE9       30.10R WCI  15
MOBRIDGE       LGT SNOW  23  20  88 S9        30.08R FOG     WCI  13
RAPID CITY     CLOUDY    29  28  96 CALM      30.01S
$$

  *****  SOME WEATHER IN NEARBY STATES *****

CITY           SKY/WX    TMP DP  RH WIND       PRES   REMARKS
GLASGOW MT     LGT SNOW  28  25  88 E7        30.08R FOG     WCI  21
GREAT FALLS MT CLOUDY    43  27  53 SW10      30.14R
CHEYENNE WY    CLOUDY    48  17  29 W28G37    30.11S
SCOTTSBLUFF NE SUNNY     42  26  53 NW9       30.08S
OMAHA NE       CLOUDY    16   5  62 SE6       30.32R WCI   7
DES MOINES IA  CLOUDY    13  -1  54 SE5       30.34F WCI   5
DAVENPORT IA   SUNNY     14   1  56 E3        30.36R
CHICAGO IL     MOSUNNY   13   0  56 N9        30.32R WCI   1
EAU CLAIRE WI  SUNNY      3  -6  66 CALM      30.31S
LA CROSSE WI   SUNNY      6  -2  69 CALM      30.36R
$$

  *****  SOME NATIONAL WEATHER *****

CITY           SKY/WX    TMP DP  RH WIND       PRES   REMARKS
LA GUARDIA NY  PTSUNNY   26   0  32 W22G32    29.91S WCI  12
RALEIGH NC     SUNNY     32   5  32 W12G20    30.21S WCI  23
ATLANTA GA     MOSUNNY   43  16  33 VRB5      30.20S
NEW ORLEANS LA MOSUNNY   67  54  63 SW15G24   30.24R
OKLAHOMA CITY  MOSUNNY   47  31  53 N12       30.17R
ALBUQUERQUE NM SUNNY     41  22  46 N6        30.36R
SALT LAKE CITY FOG       29  27  92 E6        30.46F VSB 1/2 WCI  23
LOS ANGELES CA SUNNY     66  32  28 NE3       30.10R
BOISE ID       PTSUNNY   33  29  85 E7        30.40S
SEATTLE WA     LGT RAIN  48  45  89 CALM      30.18S
$$

*** WEATHER ACROSS MANITOBA...SASKATCHEWAN AND ONTARIO ***
                ***ONTARIO***

CITY           SKY/WX    TMP DP  RH WIND       PRES   REMARKS
GERALDTON      PTSUNNY   -8 -13  77 W7        30.02F WCI -22
THUNDER BAY    PTSUNNY   -2  -9  71 W8        30.21S WCI -17
SIOUX LOOKOUT  FLURRIES   0  -6  78 W8        30.10S WCI -15
TORONTO        MOSUNNY    7  -4  61 N7        30.04R WCI  -5
BIG TROUT LK   CLOUDY   -18 -24  76 NW15G23   29.96F HAZE    WCI -43
PICKLE LAKE    CRYSTALS  -8 -15  71 W10G17    29.99S WCI -26
DRYDEN         CLOUDY     0  -6  78 W10       30.13R WCI -17
KENORA         PTSUNNY    0  -8  71 W8        30.16S WCI -15
$$
                *** MANITOBA***

CITY           SKY/WX    TMP DP  RH WIND       PRES   REMARKS
BRANDON        FLURRIES   7   1  78 E8        30.21S WCI  -6
DAUPHIN        FLURRIES   5   0  78 N8        30.28R WCI  -8
ISLAND LAKE    PTSUNNY  -17 -22  76 NW9       30.12S WCI -36
PILOT MOUND      N/A      7   3  85 NW3         N/A
THE PAS        SUNNY    -13 -18  77 NW7       30.30F WCI -29
THOMPSON       MOSUNNY  -17 -24  70 N10G20    30.19R WCI -37
WINNIPEG       FLURRIES   3  -2  78 W6        30.26R WCI  -8
LYNN LAKE      SUNNY    -18 -24  76 N12G17    30.24R WCI -40
GILLAM         MOSUNNY  -22 -31  63 N17       30.13R WCI -49
$$
                ***SASKATCHEWAN***

CITY           SKY/WX    TMP DP  RH WIND       PRES   REMARKS
ESTEVAN        FLURRIES  14  10  85 E6        30.15R WCI   5
KINDERSLEY     PTSUNNY   14  10  85 E3        30.19R
LLOYDMINSTER   FLURRIES  10   9  92 E9        30.19S WCI  -2
PRINCE ALBERT  FLURRIES   5   1  85 CALM      30.30R
REGINA         FLURRIES  16  12  86 N3        30.18R
YORKTON        FLURRIES   5   1  85 N10       30.22R WCI -10
N. BATTLEFORD  FLURRIES   9   5  85 E8        30.26R WCI  -4
LA RONGE       PTCLDY   -15 -18  84 W3        30.36R
SASKATOON      PTSUNNY    7   1  78 E9        30.28R WCI  -7
SWIFT CURRENT  LGT SNOW  16  14  93 E14       30.10R WCI   1
$$
NOTE: THESE ARE AUTOMATED STATIONS WITH LIMITED QUALITY CONTROL
      "FAIR" INDICATES FEW OR NO CLOUDS BELOW 12,000 FEET WITH NO
      SIGNIFICANT WEATHER AND/OR OBSTRUCTIONS TO VISIBILITY.
      SKY/WX - SKY CONDITION AND SIGNIFICANT WEATHER.
      TMP - AIR TEMPERATURE.    DP   - DEWPOINT TEMPERATURE.
      RH  - RELATIVE HUMIDITY.  PRES - PRESSURE.
      HX  - HEAT INDEX.         WCI  - WIND CHILL INDEX.
$



USA.gov is the U.S. government's official web portal to all federal, state and local government web resources and services.